Location: Newark
(45.2500°N, 7.5833°E)
Time: 23:27:42
(UTC+00:00)

SR - Pass Details

Date: 02 February 2020
Orbit: 575 x 881 km, 66.7° (Epoch: 19 February)

Event Time Altitude Azimuth Distance (km) Brightness Sun altitude
Exits shadow 04:40:18 41° 324° (NW) 1,116 ? -23.0°
Maximum altitude 04:42:13 85° 240° (WSW) 772 ? -22.6°
Drops below altitude 10° 04:47:14 10° 152° (SSE) 2,189 ? -21.7°
Sets 04:49:28 0° 151° (SSE) 3,056 ? -21.3°
